THORAD DELTA 1 DEB, 8396

Orbit data source: Space-Track

THORAD DELTA 1 DEB, 8396 is space debris in SSO originally from a launch on Fri, 15 Nov 1974 UTC launched from the Air Force Western Test Range (AFWTR). Debris objects in space refer to the collection of defunct objects orbiting the Earth. Examples of debris include non-operational satellites, rocket bodies, and fragments generated from explosions, collisions, or faulty payload assembly.

Loading next visibility...
Identifier
8396, 1974-089BY
Orbit
SSO
Country
Flag of USUS
Related business
Manufacturer
Unknown
Mission
Spacecraft
Bus & Motor
Unknown
Mass
Unknown
Launch date (UTC)
1974-11-15 (52 years ago)
Launch vehicle
Unknown
Launch site
Air Force Western Test Range (AFWTR)
Object type
Payload
Rocket body
Debris
Shape & HBR
Unknown shape, 0.1 m
Radar Cross Section
Medium (>0.1 m² and <1 m²)

Expand to show TLE details & history
Last TLE update: 16 hours ago

TLE from 16 hours ago
0 THORAD DELTA 1 DEB
1 08396U 74089BY  26208.16964963 -.00000120  00000-0 -53281-3 0  9993
2 08396 102.1197 284.0447 0063486   8.7859  48.0123 12.42770695347726
Epoch: 2026-07-27T04:04Z
TLE epoch observation values (Epoch: 2026-07-27T04:04:17.728Z)
Latitude
55.49498°
Longitude
-99.99714°
Altitude
1,470.608 km
Speed
7.148 km/s
True Right ascension
17h 43m 44s
True Declination
55° 20' 56"
Sunlit
Object was in daylight at epoch
Visualization orbit readout
Latitude
Unknown
Longitude
Unknown
Altitude
Unknown
Speed
Unknown
Apparent Right ascension
Unknown
Apparent Declination
Unknown
Sunlit
N/A
Visualization observer readout
Local Sidereal Time
09:33:27
Azimuth
Unknown
Elevation
Unknown
Doppler factor
Unknown
Orbital elements
Apogee altitude
1,542.425 km
Perigee altitude
1,442.491 km
Semi-major axis
7,870.595 km
Eccentricity
0.00635
Inclination
102.1197°
RAAN
284.0447°
Arg. of periapsis
8.7859°
True anomaly
48.55592°
Mean anomaly
48.0123°
Eccentric anomaly
48.28382°
Mean motion
3.10836 °/min
Orbital period
115.82 mins
BSTAR
-0.00053281
Loading maneuver chart data...
Computing Atmospheric mass density...

Documentation

Showing up to 5 results
|